{"data":{"norad_id":47228,"intl_designator":"2020-091B","name":"GONETS-M 21","alt_names":[],"object_type":"PAYLOAD","status":"ACTIVE","operator":null,"country":"CIS","launch_date":"2020-12-03","launch_site_code":"PLMSC","launch_vehicle":null,"mission":null,"orbit_class":"UNKNOWN","rcs_meters":null,"size_class":null,"mass_kg":null,"dimensions":null,"purposes":[],"wikipedia_slug":null,"has_3d_model":false,"image_url":null,"decayed_at":null,"tle_current":{"epoch":"2026-05-25T04:46:50.409120Z","epoch_age_seconds":72039,"freshness":"FRESH","line1":"1 47228U 20091B   26145.19919455  .00000103  00000+0  67073-3 0  9995","line2":"2 47228  82.4959 315.4506 0013876 243.1684 116.7977 12.42885687248215","mean_motion":12.42885687,"eccentricity":0.0013876,"inclination_deg":82.4959,"raan_deg":315.4506,"arg_perigee_deg":243.1684,"mean_anomaly_deg":116.7977,"bstar":0.00067073,"rev_number":24821,"period_min":115.85940807443,"perigee_km":1483.4701492396,"apogee_km":1505.3179974744,"semimajor_km":7872.531073357,"source":"CELESTRAK","updated_at":"2026-05-25T13:37:56.398809Z"}}}